EW6083 Weather Reports


Display with metric or nautical units.
time (UTC)temp
F
wind
direction
speed
MPH
gust
MPH
rain 1hr
in
rain 24hr
in
rain mn
in
humidity
%
barometer
mb
20260506034552 37 180 8.0 8.0 0.02 0.31 0.07 86 1011.8
20260506033545 37 270 2.0 3.0 0.04 0.31 0.07 86 1011.8
20260506032541 37 135 3.0 4.0 0.04 0.31 0.07 85 1012.0
20260506031536 37 135 2.0 3.0 0.02 0.30 0.06 85 1011.7
20260506030533 37 225 2.0 2.0 0.02 0.30 0.06 85 1011.7
20260506025547 37 180 6.0 7.0 0.01 0.28 0.05 85 1011.8
20260506024524 37 0 6.0 9.0 0.02 0.28 0.05 86 1011.8
20260506023540 38 225 4.0 6.0 0.01 0.27 0.04 86 1011.8
20260506022516 38 270 4.0 5.0 0.02 0.27 0.04 85 1011.7
20260506021511 38 270 4.0 5.0 0.02 0.27 0.04 85 1011.6
20260506020530 38 248 6.0 7.0 0.02 0.27 0.04 85 1011.6
20260506015506 38 270 4.0 5.0 0.02 0.27 0.04 85 1011.7
20260506014502 38 225 8.0 11.0 0.01 0.26 0.02 84 1012.1
20260506013455 37 180 8.0 11.0 0.02 0.26 0.02 84 1011.8
20260506012451 37 225 7.0 9.0 0.01 0.25 0.01 83 1011.6
20260506011448 37 270 5.0 8.0 0.01 0.25 0.01 83 1011.7
20260506010444 37 270 4.0 8.0 0.01 0.25 0.01 83 1011.8
20260506005434 37 135 8.0 12.0 0.01 0.25 0.01 82 1011.6
20260506004453 38 135 4.0 7.0 0.01 0.25 0.01 82 1012.0
20260506003428 37 270 2.0 2.0 0.00 0.24 0.00 81 1011.3
20260506002425 37 45 2.0 2.0 0.00 0.24 0.00 81 1011.5
20260506001418 37 315 6.0 8.0 0.00 0.24 0.00 81 1011.7
20260506000416 37 0 6.0 8.0 0.00 0.24 0.00 80 1011.8
20260505235411 38 135 2.0 2.0 0.00 0.24 0.00 80 1011.7
20260505234409 38 180 2.0 2.0 0.00 0.24 0.00 80 1012.0
20260505233407 38 90 2.0 3.0 0.00 0.24 0.00 79 1012.0
20260505232403 38 45 2.0 3.0 0.00 0.24 0.00 78 1012.0
20260505231359 38 225 1.0 2.0 0.00 0.24 0.00 77 1012.0
20260505230352 39 248 8.0 11.0 0.00 0.24 0.00 77 1012.2
20260505225349 39 270 8.0 12.0 0.00 0.24 0.00 78 1012.0
20260505224342 39 270 8.0 10.0 0.00 0.24 0.00 79 1011.9
20260505223338 38 248 2.0 4.0 0.00 0.24 0.00 79 1011.4
20260505222336 38 225 3.0 4.0 0.00 0.24 0.00 78 1011.6
20260505221326 38 180 4.0 6.0 0.00 0.24 0.00 78 1011.6
20260505220324 38 270 2.0 4.0 0.00 0.24 0.00 77 1011.6
20260505215323 38 180 5.0 8.0 0.00 0.24 0.24 77 1011.6
20260505214313 38 135 2.0 4.0 0.00 0.24 0.24 75 1012.0
20260505213332 38 180 5.0 7.0 0.00 0.24 0.24 74 1011.9
20260505212311 39 45 4.0 7.0 0.00 0.24 0.24 73 1011.9
20260505211309 39 180 2.0 6.0 0.00 0.24 0.24 73 1011.8
20260505210322 39 135 4.0 5.0 0.00 0.24 0.24 73 1011.8
20260505205342 39 225 4.0 5.0 0.00 0.24 0.24 73 1011.7
20260505204255 39 180 4.0 7.0 0.00 0.24 0.24 73 1012.0
20260505203309 39 270 4.0 5.0 0.00 0.24 0.24 74 1011.7
20260505202307 39 270 4.0 5.0 0.00 0.24 0.24 75 1011.7
20260505201238 39 225 4.0 6.0 0.00 0.24 0.24 76 1011.4
20260505200239 39 270 4.0 4.0 0.00 0.24 0.24 75 1011.5
20260505195227 39 270 1.0 2.0 0.00 0.24 0.24 74 1011.7
20260505194222 39 0 2.0 2.0 0.00 0.24 0.24 73 1011.8
20260505193221 39 45 2.0 2.0 0.00 0.24 0.24 72 1011.5
20260505192218 40 45 2.0 3.0 0.00 0.24 0.24 71 1011.3
20260505191235 41 0.0 0.0 0.00 0.24 0.24 70 1011.5
20260505190213 41 0.0 1.0 0.00 0.24 0.24 70 1011.6
20260505185314 41 90 2.0 3.0 0.00 0.24 0.24 69 1011.5
20260505184205 41 315 3.0 4.0 0.00 0.25 0.24 67 1011.6
20260505183158 42 315 6.0 7.0 0.00 0.25 0.24 64 1011.4
20260505182157 43 270 5.0 8.0 0.00 0.25 0.24 64 1011.3
20260505181151 43 270 2.0 4.0 0.00 0.25 0.24 63 1011.2
20260505180146 44 270 4.0 6.0 0.00 0.26 0.24 61 1011.5
20260505175202 45 0 6.0 8.0 0.00 0.27 0.24 60 1011.3
20260505174135 47 225 6.0 8.0 0.00 0.27 0.24 53 1011.1
20260505173133 49 225 4.0 6.0 0.00 0.27 0.24 53 1011.3
20260505172125 49 315 5.0 7.0 0.00 0.27 0.24 57 1011.1
20260505171121 47 225 7.0 9.0 0.00 0.27 0.24 60 1011.3
20260505170142 46 248 5.0 7.0 0.00 0.27 0.24 58 1011.2
20260505165137 48 248 5.0 8.0 0.00 0.27 0.24 57 1011.2
20260505164110 50 225 6.0 8.0 0.00 0.27 0.24 60 1011.2
20260505163127 47 270 8.0 10.0 0.00 0.27 0.24 61 1011.1
20260505162104 49 270 7.0 11.0 0.00 0.27 0.24 66 1011.3
20260505161059 47 270 3.0 4.0 0.00 0.27 0.24 67 1011.2
20260505160117 47 225 4.0 5.0 0.00 0.27 0.24 70 1011.4
20260505153044 43 270 4.0 6.0 0.00 0.28 0.24 80 1011.4
20260505152038 44 270 4.0 6.0 0.00 0.31 0.24 81 1011.3
20260505151033 41 315 6.0 8.0 0.00 0.31 0.24 80 1011.4
20260505125020 44 270 6.0 9.0 0.00 0.31 0.24 72 1010.4
20260505123929 44 225 7.0 11.0 0.00 0.31 0.24 73 1010.5
20260505122946 43 315 8.0 11.0 0.00 0.31 0.24 74 1010.6
20260505121921 44 0 5.0 8.0 0.02 0.31 0.24 77 1010.5
20260505120917 44 180 8.0 11.0 0.07 0.31 0.24 79 1010.5
20260505115914 43 225 6.0 8.0 0.13 0.31 0.24 80 1010.2
20260505114908 42 0 7.0 9.0 0.14 0.31 0.24 81 1010.2
20260505113907 42 180 7.0 9.0 0.14 0.31 0.24 82 1010.5
20260505112903 42 225 10.0 11.0 0.14 0.31 0.24 84 1010.6
20260505111858 41 270 6.0 8.0 0.13 0.28 0.21 84 1010.6
20260505110849 40 225 6.0 8.0 0.07 0.22 0.15 85 1010.2
20260505101830 37 0.0 0.0 0.00 0.15 0.08 84 1010.5
20260505100826 37 0.0 0.0 0.00 0.15 0.08 83 1010.2
20260505095822 37 0.0 0.0 0.00 0.15 0.08 83 1010.3
20260505094817 37 0.0 0.0 0.01 0.15 0.08 82 1010.5
20260505093814 36 0.0 0.0 0.01 0.15 0.08 82 1010.3
20260505092806 36 0.0 0.0 0.01 0.15 0.08 81 1010.5
20260505091808 36 225 2.0 3.0 0.01 0.15 0.08 81 1010.7
20260505090804 37 270 4.0 5.0 0.01 0.15 0.08 81 1010.6
20260505085755 38 270 8.0 8.0 0.01 0.15 0.08 82 1010.4
20260505084755 38 0 1.0 2.0 0.00 0.14 0.07 82 1009.8
20260505083745 37 68 3.0 4.0 0.01 0.14 0.07 81 1009.8
20260505082743 37 90 2.0 2.0 0.02 0.14 0.07 80 1009.8
20260505081759 36 0.0 0.0 0.02 0.14 0.07 79 1009.7
20260505080756 37 0 2.0 2.0 0.02 0.14 0.07 74 1009.7
20260505075732 37 315 3.0 4.0 0.04 0.14 0.07 72 1010.1
20260505074727 38 252 6.0 10.0 0.05 0.14 0.07 70 1010.1
20260505073722 40 315 9.0 11.0 0.05 0.13 0.06 73 1009.6
20260505072716 40 135 7.0 9.0 0.05 0.12 0.05 74 1009.4
20260505071713 38 158 8.0 11.0 0.05 0.12 0.05 74 1009.5
20260505070730 38 225 5.0 8.0 0.05 0.12 0.05 76 1009.5
20260505065707 38 180 9.0 11.0 0.04 0.11 0.04 78 1009.5
20260505064702 38 225 7.0 9.0 0.02 0.09 0.02 79 1009.5
20260505063701 38 248 5.0 8.0 0.01 0.08 0.01 80 1009.5
20260505062714 37 180 4.0 8.0 0.00 0.07 0.00 80 1009.5
20260505061711 37 315 5.0 8.0 0.00 0.07 0.00 81 1009.6
20260505060701 37 225 8.0 10.0 0.00 0.07 0.00 83 1009.6
20260505055642 37 225 8.0 11.0 0.00 0.07 0.00 84 1009.7
20260505054655 37 225 4.0 6.0 0.00 0.07 0.00 85 1009.5
20260505053633 37 90 4.0 7.0 0.00 0.08 0.00 85 1009.7
20260505052626 36 90 6.0 8.0 0.00 0.08 0.00 85 1009.5
20260505051623 36 315 5.0 8.0 0.00 0.08 0.00 85 1009.7
20260505050617 35 180 7.0 11.0 0.00 0.09 0.00 85 1009.7
20260505041702 36 270 4.0 5.0 0.00 0.09 0.00 84 1009.4
20260505035653 36 225 9.0 13.0 0.00 0.09 0.00 85 1009.2
20260505034643 36 225 8.0 12.0 0.00 0.09 0.00 85 1009.3